AAY2613 KPIE-KTTN

Flight info

Callsign AAY2613
Flight time N/A
Altitude 35000
Route BAYPO2 CAMJO HEPAR Q99 BLAAN/N0451F370 Q99 PEETT BBDOL PAATS4
Aircraft A320/M-SDE3FGHIRWY/LB1

Departure

Time 2026-04-25 01:45
Airport St. Petersburg Clearwater International Airport (KPIE)

Arrival

Time N/A
Airport Trenton Mercer Airport (KTTN)
Time Latitude Longitude Altitude Speed Heading
2026-04-25 01:05 27.90699 -82.69024 8 ft 0 kts 244°
2026-04-25 01:33 27.90700 -82.69021 24 ft 1 kts 244°
2026-04-25 01:33 27.90707 -82.69003 24 ft 3 kts 254°
2026-04-25 01:34 27.90713 -82.68982 26 ft 3 kts 236°
2026-04-25 01:34 27.90725 -82.68967 25 ft 3 kts 216°
2026-04-25 01:34 27.90742 -82.68956 26 ft 3 kts 194°
2026-04-25 01:34 27.90762 -82.68953 25 ft 3 kts 174°
2026-04-25 01:35 27.90780 -82.68956 28 ft 2 kts 168°
2026-04-25 01:35 27.90782 -82.68957 27 ft 0 kts 169°
2026-04-25 01:38 27.90774 -82.68956 24 ft 1 kts 172°
2026-04-25 01:39 27.90729 -82.68948 25 ft 8 kts 171°
2026-04-25 01:39 27.90679 -82.68940 24 ft 7 kts 171°
2026-04-25 01:39 27.90639 -82.68933 24 ft 5 kts 171°
2026-04-25 01:39 27.90606 -82.68927 24 ft 4 kts 171°
2026-04-25 01:40 27.90582 -82.68923 24 ft 4 kts 171°
2026-04-25 01:40 27.90498 -82.68908 24 ft 21 kts 171°
2026-04-25 01:40 27.90332 -82.68881 24 ft 26 kts 172°
2026-04-25 01:40 27.90178 -82.68859 23 ft 22 kts 181°
2026-04-25 01:41 27.90014 -82.68866 21 ft 25 kts 180°
2026-04-25 01:41 27.89839 -82.68847 23 ft 26 kts 172°
2026-04-25 01:41 27.89730 -82.68827 26 ft 11 kts 168°
2026-04-25 01:41 27.89694 -82.68766 23 ft 9 kts 89°
2026-04-25 01:42 27.89700 -82.68717 22 ft 0 kts 81°
2026-04-25 01:43 27.89700 -82.68714 22 ft 1 kts 80°
2026-04-25 01:44 27.89703 -82.68697 21 ft 3 kts 80°
2026-04-25 01:44 27.89708 -82.68662 21 ft 6 kts 81°
2026-04-25 01:44 27.89725 -82.68624 20 ft 5 kts 33°
2026-04-25 01:44 27.89841 -82.68634 20 ft 46 kts 352°
2026-04-25 01:45 27.90413 -82.68738 26 ft 115 kts 351°
2026-04-25 01:45 27.91402 -82.68914 182 ft 163 kts 350°
2026-04-25 01:45 27.92528 -82.69129 1052 ft 166 kts 349°
2026-04-25 01:45 27.93713 -82.69376 1767 ft 184 kts 350°
2026-04-25 01:46 27.95141 -82.69376 1568 ft 221 kts 12°
2026-04-25 01:46 27.96652 -82.68830 1601 ft 234 kts 21°
2026-04-25 01:46 27.98163 -82.68110 1619 ft 236 kts 23°
2026-04-25 01:46 27.99688 -82.67427 1623 ft 236 kts 13°
2026-04-25 01:47 28.01325 -82.66999 1874 ft 250 kts 12°
2026-04-25 01:47 28.03062 -82.66559 2620 ft 260 kts 12°
2026-04-25 01:47 28.04850 -82.66107 3451 ft 266 kts 13°
2026-04-25 01:47 28.06670 -82.65646 4300 ft 270 kts 13°
2026-04-25 01:48 28.08519 -82.65175 5154 ft 274 kts 14°
2026-04-25 01:48 28.10392 -82.64698 6000 ft 278 kts 14°
2026-04-25 01:48 28.12286 -82.64216 6838 ft 280 kts 13°
2026-04-25 01:48 28.14197 -82.63729 7673 ft 282 kts 13°
2026-04-25 01:49 28.16117 -82.63239 8541 ft 284 kts 12°
2026-04-25 01:49 28.18048 -82.62745 9389 ft 286 kts 12°
2026-04-25 01:49 28.19126 -82.62468 9851 ft 287 kts 12°
2026-04-25 01:49 28.21099 -82.61962 10420 ft 299 kts 11°
2026-04-25 01:50 28.23207 -82.61425 10640 ft 322 kts 11°
2026-04-25 01:50 28.25473 -82.60847 10844 ft 344 kts 11°
2026-04-25 01:50 28.27845 -82.60241 11344 ft 354 kts 11°
2026-04-25 01:50 28.30265 -82.59621 12002 ft 358 kts 11°
2026-04-25 01:51 28.32709 -82.58995 12687 ft 362 kts 11°
2026-04-25 01:51 28.35179 -82.58373 13365 ft 365 kts